Hourly Data Report for May 18, 2004

TORONTO CITY
ONTARIO

43°40'00.000" N
79°24'00.000" W
112.50 m
6158355
71508
XTO

Download Data

Hourly Data (May 2004)
Hourly Data Report for May 18, 2004
TIME
LST
Temp Definition
°C
Dew Point Definition
°C
Rel Hum Definition
%
Precip. Amount Definition
mm

Wind Dir Definition
10's deg

Wind Spd Definition
km/h
Visibility Definition
km
Stn Press Definition
kPa
Hmdx Definition


Wind Chill Definition


Weather Definition


00:00 16.2 12.9 81   LegendMM LegendMM LegendMM 100.34     LegendNANA
01:00 16.1 13.3 83   LegendMM LegendMM LegendMM 100.30     LegendNANA
02:00 15.5 12.8 84   LegendMM LegendMM LegendMM 100.24     LegendNANA
03:00 15.0 13.7 92   LegendMM LegendMM LegendMM 100.21     LegendNANA
04:00 16.0 14.6 91   LegendMM LegendMM LegendMM 100.21     LegendNANA
05:00 15.8 14.8 94   LegendMM LegendMM LegendMM 100.17     LegendNANA
06:00 16.3 15.2 93   LegendMM LegendMM LegendMM 100.18     LegendNANA
07:00 16.3 15.0 92   LegendMM LegendMM LegendMM 100.18     LegendNANA
08:00 17.2 15.4 89   LegendMM LegendMM LegendMM 100.15     LegendNANA
09:00 18.7 16.6 88   LegendMM LegendMM LegendMM 100.14     LegendNANA
10:00 18.9 16.8 88   LegendMM LegendMM LegendMM 100.13     LegendNANA
11:00 19.5 16.8 84   LegendMM LegendMM LegendMM 100.13     LegendNANA
12:00 20.8 16.6 77   LegendMM LegendMM LegendMM 100.13 26   LegendNANA
13:00 21.5 16.8 75   LegendMM LegendMM LegendMM 100.09 27   LegendNANA
14:00 22.8 16.6 68   LegendMM LegendMM LegendMM 100.10 28   LegendNANA
15:00 21.4 17.4 78   LegendMM LegendMM LegendMM 100.16 27   LegendNANA
16:00 21.2 15.8 71   LegendMM LegendMM LegendMM 100.17 26   LegendNANA
17:00 20.9 14.7 68   LegendMM LegendMM LegendMM 100.21 25   LegendNANA
18:00 18.6 13.3 71   LegendMM LegendMM LegendMM 100.32     LegendNANA
19:00 15.9 11.4 75   LegendMM LegendMM LegendMM 100.39     LegendNANA
20:00 13.9 10.3 79   LegendMM LegendMM LegendMM 100.43     LegendNANA
21:00 13.8 9.6 76   LegendMM LegendMM LegendMM 100.54     LegendNANA
22:00 13.1 9.6 79   LegendMM LegendMM LegendMM 100.61     LegendNANA
23:00 12.6 9.4 81   LegendMM LegendMM LegendMM 100.67     LegendNANA

Notes on Data Quality.

Legend

  • E = Estimated
  • M = Missing
  • NA = Not Available*
  • [empty] = Indicates an unobserved value
Date modified: